When you browse on this site, cookies collect data to enhance your experience and personalize the content and advertising you see.
Visit our Privacy Policy to learn more. By continuing to use the site, you agree to this use of cookies and data.
  • In Latvia
  • List of Countries
  • For 7 days
  • Water Temperature
  • Satellite Maps
  • Weather Map
  • Weather Widgets
  • user-avatar
    Login

    Hourly Weather Trenton

    Today, 20 July, Saturday

    Time Temperature Precipitation Wind Pressure Humidity
    00:00 +30°C° 0 mm 2 mps 756 mmHg 73%
    01:00 +30°C° 0 mm 2 mps 756 mmHg 72%
    02:00 +29°C° 0 mm 2 mps 756 mmHg 73%
    03:00 +29°C° 0 mm 2 mps 756 mmHg 75%
    04:00 +29°C° 0 mm 1 mps 756 mmHg 76%
    05:00 +29°C° 0 mm 1 mps 756 mmHg 74%
    06:00 +30°C° 0 mm 2 mps 757 mmHg 73%
    07:00 +31°C° 0 mm 1 mps 757 mmHg 73%
    08:00 +32°C° 0.6 mm 2 mps 757 mmHg 67%
    09:00 +35°C° 0.6 mm 2 mps 757 mmHg 62%
    10:00 +36°C° 0.6 mm 2 mps 756 mmHg 56%
    11:00 +37°C° 0 mm 2 mps 756 mmHg 52%
    12:00 +38°C° 0 mm 2 mps 756 mmHg 48%
    13:00 +39°C° 0 mm 2 mps 756 mmHg 43%
    14:00 +39°C° 0 mm 3 mps 755 mmHg 44%
    15:00 +40°C° 0 mm 4 mps 755 mmHg 46%
    16:00 +40°C° 0 mm 4 mps 755 mmHg 47%
    17:00 +38°C° 0 mm 4 mps 755 mmHg 51%
    18:00 +36°C° 0 mm 4 mps 755 mmHg 56%
    19:00 +35°C° 0 mm 3 mps 755 mmHg 60%
    20:00 +34°C° 0.8 mm 3 mps 755 mmHg 64%
    21:00 +33°C° 0.8 mm 3 mps 755 mmHg 67%
    22:00 +30°C° 0.8 mm 2 mps 755 mmHg 71%
    23:00 +30°C° 0.8 mm 2 mps 755 mmHg 72%

    Tomorrow, 21 July, Sunday

    Time Temperature Precipitation Wind Pressure Humidity
    00:00 +29°C° 0.8 mm 2 mps 755 mmHg 74%
    01:00 +28°C° 0.8 mm 2 mps 755 mmHg 75%
    02:00 +28°C° 0.1 mm 2 mps 755 mmHg 75%
    03:00 +28°C° 0.1 mm 2 mps 755 mmHg 75%
    04:00 +28°C° 0.1 mm 1 mps 755 mmHg 74%
    05:00 +28°C° 0 mm 2 mps 755 mmHg 73%
    06:00 +29°C° 0 mm 2 mps 755 mmHg 72%
    07:00 +30°C° 0 mm 2 mps 756 mmHg 71%
    08:00 +32°C° 0 mm 2 mps 756 mmHg 64%
    09:00 +35°C° 0 mm 3 mps 756 mmHg 58%
    10:00 +36°C° 0 mm 3 mps 756 mmHg 52%
    11:00 +37°C° 0 mm 4 mps 756 mmHg 49%
    12:00 +38°C° 0 mm 4 mps 755 mmHg 46%
    13:00 +41°C° 0 mm 4 mps 755 mmHg 43%
    14:00 +40°C° 0.2 mm 4 mps 755 mmHg 45%
    15:00 +40°C° 0.2 mm 4 mps 755 mmHg 48%
    16:00 +40°C° 0.2 mm 4 mps 755 mmHg 50%
    17:00 +37°C° 0.1 mm 4 mps 755 mmHg 55%
    18:00 +36°C° 0.1 mm 3 mps 755 mmHg 59%
    19:00 +34°C° 0.1 mm 3 mps 755 mmHg 64%
    20:00 +32°C° 0.3 mm 2 mps 755 mmHg 66%
    21:00 +31°C° 0.3 mm 2 mps 756 mmHg 69%
    22:00 +31°C° 0.3 mm 2 mps 756 mmHg 71%
    23:00 +30°C° 0.6 mm 2 mps 756 mmHg 74%

    Day after tomorrow, 22 July, Monday

    Time Temperature Precipitation Wind Pressure Humidity
    00:00 +29°C° 0.6 mm 2 mps 756 mmHg 77%
    01:00 +28°C° 0.6 mm 2 mps 756 mmHg 80%
    02:00 +27°C° 0.2 mm 2 mps 756 mmHg 75%
    03:00 +26°C° 0.2 mm 2 mps 756 mmHg 71%
    04:00 +26°C° 0.2 mm 2 mps 755 mmHg 66%
    05:00 +26°C° 0.4 mm 2 mps 756 mmHg 66%
    06:00 +26°C° 0.4 mm 2 mps 756 mmHg 65%
    07:00 +27°C° 0.4 mm 2 mps 756 mmHg 64%
    08:00 +28°C° 0.6 mm 2 mps 756 mmHg 63%
    09:00 +30°C° 0.6 mm 2 mps 756 mmHg 61%
    10:00 +31°C° 0.6 mm 2 mps 756 mmHg 59%
    11:00 +32°C° 1 mm 2 mps 755 mmHg 60%
    12:00 +32°C° 1 mm 2 mps 755 mmHg 61%
    13:00 +34°C° 1 mm 2 mps 755 mmHg 62%
    14:00 +32°C° 1.2 mm 2 mps 754 mmHg 66%
    15:00 +31°C° 1.2 mm 3 mps 754 mmHg 70%
    16:00 +31°C° 1.2 mm 3 mps 754 mmHg 74%
    17:00 +30°C° 1 mm 3 mps 754 mmHg 77%
    18:00 +29°C° 1 mm 2 mps 754 mmHg 79%
    19:00 +28°C° 1 mm 2 mps 754 mmHg 82%
    20:00 +27°C° 4.2 mm 2 mps 754 mmHg 85%
    21:00 +26°C° 4.2 mm 1 mps 753 mmHg 88%
    22:00 +26°C° 4.2 mm 1 mps 753 mmHg 91%
    23:00 +26°C° 0.5 mm 1 mps 753 mmHg 90%

    23 July, Tuesday

    Time Temperature Precipitation Wind Pressure Humidity
    00:00 +26°C° 0.5 mm 1 mps 753 mmHg 89%
    01:00 +26°C° 0.5 mm 2 mps 752 mmHg 89%
    02:00 +25°C° 2.3 mm 2 mps 752 mmHg 90%
    03:00 +25°C° 2.3 mm 3 mps 752 mmHg 91%
    04:00 +25°C° 2.3 mm 3 mps 751 mmHg 92%
    05:00 +24°C° 0.6 mm 3 mps 752 mmHg 89%
    06:00 +23°C° 0.6 mm 4 mps 753 mmHg 86%
    07:00 +22°C° 0.6 mm 4 mps 753 mmHg 84%
    08:00 +23°C° 0 mm 4 mps 754 mmHg 79%
    09:00 +25°C° 0 mm 4 mps 754 mmHg 74%
    10:00 +26°C° 0 mm 4 mps 755 mmHg 70%
    11:00 +27°C° 0 mm 3 mps 755 mmHg 64%
    12:00 +28°C° 0 mm 3 mps 755 mmHg 58%
    13:00 +29°C° 0 mm 3 mps 755 mmHg 53%
    14:00 +29°C° 0 mm 3 mps 755 mmHg 52%
    15:00 +29°C° 0 mm 2 mps 755 mmHg 51%
    16:00 +30°C° 0 mm 2 mps 755 mmHg 50%
    17:00 +28°C° 0 mm 3 mps 755 mmHg 54%
    18:00 +27°C° 0 mm 3 mps 756 mmHg 59%
    19:00 +26°C° 0 mm 3 mps 756 mmHg 63%
    20:00 +25°C° 0 mm 3 mps 756 mmHg 64%
    21:00 +24°C° 0 mm 3 mps 757 mmHg 64%
    22:00 +22°C° 0 mm 3 mps 757 mmHg 65%
    23:00 +22°C° 0 mm 3 mps 757 mmHg 64%

    24 July, Wednesday

    Time Temperature Precipitation Wind Pressure Humidity
    00:00 +22°C° 0 mm 4 mps 757 mmHg 64%
    01:00 +21°C° 0 mm 4 mps 757 mmHg 63%
    02:00 +21°C° 0 mm 3 mps 757 mmHg 64%
    03:00 +20°C° 0 mm 3 mps 758 mmHg 64%
    04:00 +19°C° 0 mm 3 mps 758 mmHg 64%
    05:00 +20°C° 0 mm 3 mps 758 mmHg 65%
    06:00 +20°C° 0 mm 3 mps 759 mmHg 66%
    07:00 +20°C° 0 mm 3 mps 759 mmHg 67%
    08:00 +22°C° 0 mm 3 mps 760 mmHg 62%
    09:00 +25°C° 0 mm 3 mps 760 mmHg 57%
    10:00 +26°C° 0 mm 2 mps 760 mmHg 52%
    11:00 +27°C° 0 mm 3 mps 760 mmHg 48%
    12:00 +28°C° 0 mm 3 mps 760 mmHg 45%
    13:00 +29°C° 0 mm 3 mps 760 mmHg 41%
    14:00 +29°C° 0 mm 3 mps 760 mmHg 42%
    15:00 +29°C° 0 mm 3 mps 760 mmHg 43%
    16:00 +29°C° 0 mm 3 mps 759 mmHg 44%
    17:00 +27°C° 0 mm 3 mps 760 mmHg 46%
    18:00 +26°C° 0 mm 3 mps 760 mmHg 48%
    19:00 +25°C° 0 mm 2 mps 760 mmHg 50%
    20:00 +24°C° 0 mm 2 mps 761 mmHg 50%
    21:00 +23°C° 0 mm 2 mps 761 mmHg 51%
    22:00 +23°C° 0 mm 2 mps 761 mmHg 51%
    23:00 +21°C° 0 mm 2 mps 762 mmHg 54%

    25 July, Thursday

    Time Temperature Precipitation Wind Pressure Humidity
    00:00 +21°C° 0 mm 3 mps 762 mmHg 57%
    01:00 +20°C° 0 mm 3 mps 762 mmHg 60%
    02:00 +20°C° 0 mm 2 mps 762 mmHg 61%
    03:00 +19°C° 0 mm 2 mps 762 mmHg 63%
    04:00 +19°C° 0 mm 2 mps 762 mmHg 64%
    05:00 +19°C° 0 mm 2 mps 763 mmHg 64%
    06:00 +20°C° 0 mm 2 mps 763 mmHg 64%
    07:00 +21°C° 0 mm 3 mps 763 mmHg 64%
    08:00 +22°C° 0 mm 3 mps 763 mmHg 58%
    09:00 +25°C° 0 mm 3 mps 764 mmHg 53%
    10:00 +26°C° 0 mm 3 mps 764 mmHg 47%
    11:00 +27°C° 0 mm 3 mps 763 mmHg 43%
    12:00 +28°C° 0 mm 3 mps 763 mmHg 39%
    13:00 +29°C° 0 mm 2 mps 763 mmHg 35%
    14:00 +29°C° 0 mm 2 mps 763 mmHg 35%
    15:00 +29°C° 0 mm 2 mps 763 mmHg 36%
    16:00 +29°C° 0 mm 2 mps 763 mmHg 36%
    17:00 +28°C° 0 mm 2 mps 763 mmHg 41%
    18:00 +26°C° 0 mm 2 mps 763 mmHg 46%
    19:00 +25°C° 0 mm 2 mps 763 mmHg 51%
    20:00 +24°C° 0 mm 2 mps 764 mmHg 55%
    21:00 +23°C° 0 mm 1 mps 764 mmHg 58%
    22:00 +22°C° 0 mm 1 mps 764 mmHg 62%
    23:00 +21°C° 0 mm 1 mps 765 mmHg 63%
    Show more